Weather in Kolendo

Russia / Sakhalin District     53°46′41″N   142°47′15″E
temp.,
°C
wind,
m/s
gust,
m/s
humid.,
%
clouds,
%
prec.,
mm/h
press.,
hPa
HPBL,
m
26 february, fri
fri2623:00−18nw5895100 0.0 1019158
02:00−19nw5898100 0.0 1020156
05:00−20nw5997100 0.0 1019184
08:00−20nw5898100 0.0 1020178
11:00−18nw6994100 0.0 1021277
14:00−16nw71091100 0.0 1021358
17:00−16nw71088100 0.0 1021334
20:00−18nw61093100 0.0 1023208
27 february, sat
sat2723:00−20nw6998100 0.0 1024153
02:00−22nw599875 0.0 1025135
05:00−23nw589763 0.0 1025123
08:00−24wnw57900 0.0 1026100
11:00−21wnw69966 0.0 1026244
14:00−18wnw589372 0.0 1026325
17:00−17wnw359054 0.0 1024156
20:00−21wnw22970 0.0 102320
28 february, sun
sun2823:00−23sse11981 0.0 102320
02:00−20ese348898 0.0 102030
05:00−18ese579399 0.0 1016181
08:00−15se5995100 0.4 1013303
11:00−13se4894100 2.3 1011435
14:00−10se3488100 0.9 1010461
17:00−11wnw5692100 1.3 1009509
20:00−14wnw81293100 0.2 1011369
1 march, mon
mon123:00−17wnw101593100 0.3 1012400
02:00−16wnw91593100 0.2 1012386
05:00−16wnw101494100 0.7 1013484
08:00−17nw91494100 1.0 1014554
11:00−16nw101493100 1.6 1016684
14:00−17nw101481100 0.3 1017740
17:00−19wnw101376100 0.3 1019653
20:00−22wnw81477100 0.0 1021368
2 march, tue
tue223:00−25w598467 0.0 1023134
02:00−26w58860 0.0 1022119
05:00−26wsw610870 0.0 1023148
08:00−26wsw58860 0.0 1025124
11:00−24w712800 0.0 1025418
14:00−20w8127733 0.0 10251157
17:00−20w577466 0.0 1025876
20:00−24nw228079 0.0 102620